�������l�o���
Date,Time,MP-1(��Sv/h),MP-2(��Sv/h),MP-3(��Sv/h),MP-4(��Sv/h),MP-5(��Sv/h),MP-6(��Sv/h),MP-7(��Sv/h),MP-8(��Sv/h),����,����(m/s),���J
2022/05/23,00:00,0.557,0.816,0.530,0.993,0.698,0.340,0.584,0.553,�k��,6.0,��
2022/05/23,00:10,0.555,0.813,0.530,0.991,0.700,0.340,0.586,0.552,�k��,4.9,��
2022/05/23,00:20,0.556,0.815,0.529,0.994,0.699,0.341,0.585,0.553,�k��,5.0,��
2022/05/23,00:30,0.554,0.814,0.531,0.992,0.701,0.340,0.586,0.554,�k��,4.3,��
2022/05/23,00:40,0.555,0.813,0.529,0.994,0.698,0.341,0.585,0.552,�k�k��,4.3,��
2022/05/23,00:50,0.557,0.813,0.531,0.995,0.699,0.341,0.586,0.552,�k�k��,4.6,��
2022/05/23,01:00,0.555,0.815,0.529,0.992,0.700,0.340,0.584,0.553,�k��,5.3,��
2022/05/23,01:10,0.557,0.815,0.531,0.993,0.700,0.339,0.585,0.552,�k��,4.3,��
2022/05/23,01:20,0.555,0.814,0.529,0.992,0.701,0.341,0.584,0.554,�k��,4.0,��
2022/05/23,01:30,0.556,0.812,0.529,0.993,0.699,0.340,0.586,0.554,�k��,4.3,��
2022/05/23,01:40,0.555,0.814,0.532,0.993,0.700,0.342,0.586,0.553,���k��,4.4,��
2022/05/23,01:50,0.554,0.816,0.531,0.994,0.700,0.338,0.586,0.554,�k��,3.5,��
2022/05/23,02:00,0.556,0.815,0.529,0.995,0.700,0.340,0.587,0.555,�k��,3.4,��
2022/05/23,02:10,0.555,0.817,0.531,0.994,0.701,0.340,0.587,0.553,�k��,3.4,��
2022/05/23,02:20,0.556,0.815,0.530,0.995,0.699,0.342,0.588,0.553,�k��,3.8,��
2022/05/23,02:30,0.558,0.815,0.531,0.995,0.700,0.342,0.587,0.555,�k,3.3,�L
2022/05/23,02:40,0.556,0.814,0.531,0.994,0.699,0.342,0.585,0.554,�k�k��,3.1,�L
2022/05/23,02:50,0.556,0.817,0.530,0.995,0.700,0.341,0.587,0.553,�k�k��,3.1,�L
2022/05/23,03:00,0.556,0.816,0.531,0.995,0.699,0.343,0.587,0.555,�k�k��,2.3,�L
2022/05/23,03:10,0.556,0.817,0.531,0.997,0.702,0.342,0.588,0.555,�k�k��,2.6,�L
2022/05/23,03:20,0.556,0.817,0.533,0.999,0.701,0.343,0.587,0.556,�k�k��,2.3,�L
2022/05/23,03:30,0.557,0.816,0.532,0.996,0.703,0.345,0.587,0.555,�k��,2.5,��
2022/05/23,03:40,0.558,0.816,0.532,0.994,0.702,0.342,0.588,0.556,�k�k��,1.7,��
2022/05/23,03:50,0.557,0.818,0.533,0.997,0.702,0.342,0.587,0.554,�k�k��,0.9,��
2022/05/23,04:00,0.558,0.819,0.532,0.995,0.702,0.343,0.586,0.554,�k��,1.4,��
2022/05/23,04:10,0.557,0.818,0.533,0.997,0.701,0.342,0.588,0.555,��,1.5,��
2022/05/23,04:20,0.558,0.815,0.530,0.995,0.701,0.342,0.586,0.555,���k��,0.8,��
2022/05/23,04:30,0.556,0.815,0.531,0.997,0.701,0.342,0.586,0.555,�k��,1.1,��
2022/05/23,04:40,0.558,0.817,0.530,0.997,0.700,0.342,0.587,0.554,�k,0.8,��
2022/05/23,04:50,0.556,0.817,0.530,0.996,0.700,0.342,0.588,0.555,�k,1.4,��
2022/05/23,05:00,0.554,0.817,0.530,0.996,0.701,0.341,0.585,0.556,�k�k��,1.7,��
2022/05/23,05:10,0.556,0.817,0.530,0.996,0.700,0.341,0.587,0.554,�k�k��,2.8,��
2022/05/23,05:20,0.555,0.815,0.530,0.993,0.700,0.341,0.587,0.553,�k�k��,3.2,��
2022/05/23,05:30,0.557,0.817,0.531,0.996,0.699,0.341,0.585,0.555,�k�k��,4.1,��
2022/05/23,05:40,0.555,0.816,0.532,0.996,0.700,0.342,0.586,0.554,�k�k��,4.0,��
2022/05/23,05:50,0.555,0.816,0.533,0.995,0.700,0.342,0.587,0.557,�k,5.0,��
2022/05/23,06:00,0.557,0.817,0.529,0.997,0.699,0.341,0.587,0.555,�k,4.5,��
2022/05/23,06:10,0.556,0.818,0.530,0.996,0.701,0.341,0.585,0.554,�k,4.8,��
2022/05/23,06:20,0.557,0.816,0.530,0.995,0.701,0.342,0.587,0.555,�k,4.9,��
2022/05/23,06:30,0.557,0.817,0.532,0.997,0.702,0.340,0.586,0.555,�k,4.4,��
2022/05/23,06:40,0.557,0.819,0.531,0.997,0.701,0.341,0.586,0.554,�k�k��,4.5,��
2022/05/23,06:50,0.557,0.819,0.530,0.993,0.703,0.341,0.587,0.555,�k�k��,4.7,��
2022/05/23,07:00,0.558,0.816,0.532,0.997,0.701,0.340,0.587,0.554,�k�k��,4.2,��
2022/05/23,07:10,0.557,0.817,0.533,0.997,0.701,0.340,0.586,0.554,�k,3.6,��
2022/05/23,07:20,0.557,0.820,0.533,0.996,0.701,0.342,0.586,0.555,�k�k��,4.3,��
2022/05/23,07:30,0.558,0.819,0.532,0.998,0.701,0.341,0.587,0.553,�k�k��,3.9,��
2022/05/23,07:40,0.557,0.819,0.532,0.997,0.701,0.338,0.585,0.553,�k��,4.1,��
2022/05/23,07:50,0.557,0.819,0.533,0.995,0.702,0.339,0.586,0.554,�k�k��,3.1,��
2022/05/23,08:00,0.558,0.815,0.533,0.996,0.700,0.339,0.587,0.552,�k�k��,3.8,��
2022/05/23,08:10,0.559,0.817,0.532,0.997,0.702,0.340,0.586,0.551,�k,3.6,��
2022/05/23,08:20,0.556,0.815,0.534,0.997,0.701,0.340,0.588,0.553,�k,4.6,��
2022/05/23,08:30,0.557,0.815,0.532,0.998,0.702,0.340,0.585,0.554,�k,3.1,��
2022/05/23,08:40,0.557,0.814,0.532,0.996,0.699,0.339,0.584,0.553,�k,2.9,�L
2022/05/23,08:50,0.555,0.814,0.532,0.999,0.701,0.340,0.586,0.553,�k�k��,2.5,�L
2022/05/23,09:00,0.555,0.815,0.532,0.999,0.701,0.341,0.585,0.554,�k,2.5,��
2022/05/23,09:10,0.557,0.816,0.532,0.996,0.703,0.340,0.585,0.554,�k�k��,3.6,�L
2022/05/23,09:20,0.557,0.814,0.533,0.995,0.703,0.340,0.584,0.554,�k�k��,4.0,�L
2022/05/23,09:30,0.557,0.814,0.533,0.999,0.702,0.341,0.584,0.555,�k,3.8,�L
2022/05/23,09:40,0.558,0.817,0.533,1.000,0.703,0.341,0.586,0.553,�k,3.4,�L
2022/05/23,09:50,0.559,0.815,0.536,1.000,0.703,0.342,0.586,0.553,�k�k��,3.9,�L
2022/05/23,10:00,0.558,0.817,0.536,1.000,0.704,0.342,0.585,0.554,�k�k��,3.8,�L
2022/05/23,10:10,0.558,0.819,0.534,0.998,0.703,0.342,0.585,0.552,�k�k��,4.1,�L
2022/05/23,10:20,0.560,0.817,0.534,0.997,0.704,0.343,0.585,0.553,�k�k��,4.2,�L
2022/05/23,10:30,0.559,0.819,0.536,0.997,0.705,0.344,0.585,0.552,�k��,3.7,��
2022/05/23,10:40,0.557,0.816,0.535,0.998,0.706,0.342,0.584,0.554,�k��,3.6,��
2022/05/23,10:50,0.559,0.817,0.535,0.998,0.706,0.340,0.586,0.554,�k�k��,4.1,��
2022/05/23,11:00,0.558,0.817,0.534,0.999,0.702,0.340,0.586,0.554,�k�k��,4.5,��
2022/05/23,11:10,0.558,0.816,0.533,0.998,0.702,0.339,0.585,0.553,�k�k��,4.6,��
2022/05/23,11:20,0.558,0.815,0.533,0.999,0.704,0.341,0.584,0.553,�k�k��,5.2,��
2022/05/23,11:30,0.559,0.817,0.530,0.997,0.703,0.340,0.585,0.553,�k�k��,5.5,��
2022/05/23,11:40,0.558,0.817,0.531,0.998,0.703,0.340,0.586,0.552,�k�k��,6.0,��
2022/05/23,11:50,0.557,0.816,0.532,1.000,0.703,0.340,0.585,0.554,�k��,5.9,��
2022/05/23,12:00,0.558,0.817,0.531,0.999,0.703,0.339,0.586,0.554,�k�k��,5.3,��
2022/05/23,12:10,0.559,0.818,0.532,0.996,0.702,0.339,0.587,0.553,�k�k��,5.6,��
2022/05/23,12:20,0.558,0.819,0.533,1.000,0.704,0.339,0.586,0.552,�k��,5.7,��
2022/05/23,12:30,0.559,0.819,0.534,1.000,0.705,0.338,0.588,0.553,�k��,5.0,��
2022/05/23,12:40,0.557,0.819,0.533,1.000,0.705,0.338,0.587,0.553,�k��,5.1,��
2022/05/23,12:50,0.557,0.819,0.534,1.000,0.704,0.339,0.587,0.553,�k��,5.2,��
2022/05/23,13:00,0.558,0.820,0.534,1.000,0.705,0.340,0.588,0.551,�k�k��,4.9,��
2022/05/23,13:10,0.559,0.820,0.532,1.000,0.705,0.339,0.587,0.554,�k�k��,4.4,��
2022/05/23,13:20,0.560,0.819,0.533,0.999,0.705,0.339,0.587,0.554,�k�k��,4.7,��
2022/05/23,13:30,0.559,0.818,0.533,0.998,0.703,0.339,0.587,0.552,�k�k��,4.6,��
2022/05/23,13:40,0.559,0.821,0.532,0.999,0.705,0.340,0.586,0.553,�k�k��,4.6,��
2022/05/23,13:50,0.558,0.818,0.533,1.000,0.705,0.340,0.588,0.554,�k�k��,4.3,��
2022/05/23,14:00,0.560,0.818,0.533,1.000,0.708,0.340,0.586,0.554,�k�k��,3.5,��
2022/05/23,14:10,0.560,0.822,0.534,1.001,0.706,0.339,0.586,0.553,�k�k��,1.9,��
2022/05/23,14:20,0.560,0.822,0.534,1.000,0.706,0.341,0.586,0.554,�k�k��,2.8,��
2022/05/23,14:30,0.558,0.823,0.535,1.000,0.705,0.339,0.585,0.554,�k�k��,2.9,��
2022/05/23,14:40,0.560,0.819,0.534,0.999,0.705,0.339,0.587,0.555,���k��,2.6,��
2022/05/23,14:50,0.559,0.821,0.534,1.001,0.705,0.339,0.587,0.555,�k��,1.7,��
2022/05/23,15:00,0.560,0.820,0.532,1.001,0.706,0.339,0.587,0.554,�k��,2.3,��
2022/05/23,15:10,0.561,0.822,0.535,1.000,0.707,0.339,0.587,0.555,�k�k��,1.5,��
2022/05/23,15:20,0.561,0.821,0.532,1.003,0.706,0.339,0.587,0.553,�k��,0.9,��
2022/05/23,15:30,0.561,0.822,0.534,1.001,0.709,0.339,0.587,0.554,�k�k��,1.1,��
2022/05/23,15:40,0.562,0.820,0.534,1.002,0.705,0.338,0.587,0.555,�k,1.7,��
2022/05/23,15:50,0.562,0.823,0.534,1.002,0.708,0.339,0.588,0.555,�k��,1.4,��
2022/05/23,16:00,0.562,0.824,0.535,1.002,0.709,0.339,0.586,0.556,�k��,1.9,��
2022/05/23,16:10,0.561,0.824,0.536,0.999,0.708,0.340,0.587,0.554,�k��,2.3,�L
2022/05/23,16:20,0.559,0.825,0.535,1.002,0.707,0.339,0.586,0.555,�k��,1.5,�L
2022/05/23,16:30,0.561,0.825,0.534,1.003,0.708,0.340,0.587,0.554,�k��,1.5,�L
2022/05/23,16:40,0.560,0.825,0.535,1.001,0.707,0.339,0.588,0.554,���k��,1.5,��
2022/05/23,16:50,0.559,0.824,0.535,1.001,0.709,0.341,0.588,0.555,���k��,1.5,��
2022/05/23,17:00,0.561,0.826,0.535,1.005,0.706,0.340,0.586,0.554,�k��,1.5,��
2022/05/23,17:10,0.563,0.827,0.536,1.003,0.706,0.341,0.587,0.555,���k��,1.7,��
2022/05/23,17:20,0.563,0.828,0.536,1.001,0.707,0.341,0.586,0.553,��,1.7,��
2022/05/23,17:30,0.563,0.828,0.538,1.003,0.707,0.341,0.588,0.555,���쓌,1.4,��
2022/05/23,17:40,0.564,0.829,0.536,1.001,0.706,0.340,0.586,0.554,��쓌,1.5,��
2022/05/23,17:50,0.563,0.827,0.536,1.003,0.708,0.339,0.587,0.555,��쓌,1.9,��
2022/05/23,18:00,0.564,0.830,0.537,1.003,0.708,0.340,0.586,0.557,��,1.7,��
2022/05/23,18:10,0.565,0.830,0.538,1.002,0.708,0.341,0.588,0.556,��쓌,1.2,��
2022/05/23,18:20,0.564,0.829,0.536,1.002,0.708,0.340,0.587,0.556,��,2.5,��
2022/05/23,18:30,0.564,0.828,0.538,1.004,0.710,0.341,0.587,0.557,��쐼,2.2,��
2022/05/23,18:40,0.566,0.831,0.538,1.004,0.708,0.341,0.589,0.556,��쐼,2.6,��
2022/05/23,18:50,0.566,0.829,0.537,1.002,0.710,0.341,0.587,0.557,��쐼,3.4,��
2022/05/23,19:00,0.566,0.831,0.538,1.002,0.710,0.342,0.587,0.557,�쐼,2.8,��
2022/05/23,19:10,0.568,0.831,0.539,1.005,0.710,0.343,0.588,0.556,��쐼,2.3,��
2022/05/23,19:20,0.567,0.829,0.536,1.002,0.710,0.341,0.590,0.557,��쐼,2.6,��
2022/05/23,19:30,0.567,0.831,0.538,1.003,0.711,0.342,0.590,0.557,��쐼,3.5,��
2022/05/23,19:40,0.566,0.828,0.538,1.004,0.710,0.343,0.589,0.557,��쐼,3.1,��
2022/05/23,19:50,0.566,0.830,0.538,1.005,0.711,0.342,0.589,0.558,��쐼,3.0,��
2022/05/23,20:00,0.565,0.829,0.536,1.003,0.712,0.341,0.590,0.556,���쐼,2.5,��
2022/05/23,20:10,0.567,0.830,0.538,1.003,0.711,0.342,0.591,0.555,�쐼,1.9,��
2022/05/23,20:20,0.566,0.830,0.539,1.003,0.711,0.342,0.591,0.556,��,3.1,��
2022/05/23,20:30,0.565,0.829,0.536,1.004,0.709,0.342,0.591,0.558,��쓌,3.8,��
2022/05/23,20:40,0.566,0.827,0.536,1.002,0.711,0.341,0.590,0.557,��쓌,2.8,��
2022/05/23,20:50,0.566,0.831,0.538,1.004,0.710,0.342,0.590,0.558,��쓌,2.6,��
2022/05/23,21:00,0.565,0.828,0.536,1.003,0.709,0.343,0.590,0.557,��쓌,2.2,��
2022/05/23,21:10,0.568,0.830,0.538,1.002,0.710,0.342,0.591,0.557,��쓌,1.5,��
2022/05/23,21:20,0.566,0.831,0.536,1.004,0.710,0.342,0.592,0.554,�쓌,0.8,��
2022/05/23,21:30,0.566,0.828,0.537,1.004,0.710,0.342,0.591,0.557,-,CALM,��
2022/05/23,21:40,0.565,0.828,0.537,1.003,0.713,0.343,0.591,0.556,��쐼,0.9,��
2022/05/23,21:50,0.566,0.829,0.537,1.003,0.709,0.342,0.591,0.556,��쐼,1.9,��
2022/05/23,22:00,0.566,0.829,0.535,1.004,0.710,0.344,0.591,0.557,�쐼,1.9,��
2022/05/23,22:10,0.565,0.828,0.537,1.004,0.712,0.343,0.591,0.556,�쐼,2.0,��
2022/05/23,22:20,0.564,0.829,0.537,1.003,0.712,0.341,0.590,0.556,��쐼,2.3,��
2022/05/23,22:30,0.565,0.829,0.537,1.003,0.712,0.342,0.591,0.555,��,2.3,��
2022/05/23,22:40,0.564,0.827,0.539,1.004,0.710,0.342,0.591,0.557,�쐼,1.7,��
2022/05/23,22:50,0.565,0.828,0.537,1.005,0.711,0.342,0.591,0.554,���쐼,2.0,��
2022/05/23,23:00,0.565,0.830,0.538,1.003,0.711,0.342,0.591,0.555,���쐼,2.6,��
2022/05/23,23:10,0.565,0.829,0.536,1.002,0.709,0.342,0.591,0.556,��쐼,2.6,��
2022/05/23,23:20,0.567,0.829,0.539,1.002,0.711,0.342,0.589,0.557,�쐼,2.5,��
2022/05/23,23:30,0.567,0.828,0.536,1.004,0.710,0.343,0.592,0.557,���쐼,1.5,��
2022/05/23,23:40,0.564,0.829,0.538,1.003,0.710,0.343,0.590,0.556,���쐼,1.2,��
2022/05/23,23:50,0.567,0.827,0.538,1.004,0.713,0.343,0.590,0.557,�쐼,0.9,��
